Location: *
(40.7873°S, 98.7174°E)
Time: 09:13:04
(UTC+00:00)

NOAA 12 - Pass Details

Date: 24 May 2022
Orbit: 796 x 814 km, 98.5° (Epoch: 04 July)

Event Time Altitude Azimuth Distance (km) Brightness Sun altitude
Rises 11:33:54 0° 170° (S) 3,368 7.1 -15.6°
Reaches altitude 10° 11:36:17 10° 172° (S) 2,427 6.4 -16.0°
Maximum altitude 11:41:37 66° 253° (WSW) 886 4.5 -17.0°
Drops below altitude 10° 11:46:50 10° 334° (NNW) 2,385 7.1 -18.0°
Sets 11:49:10 0° 337° (NNW) 3,305 7.8 -18.4°
